Вернуться в каталог

THORAD AGENA D DEB

АктивенSSO
NORAD 4683·DEBRIS·🇺🇸 United States

Запущен Apr 8, 1970 с Vandenberg Space Force Base

Loading…

Ближайшие Пролёты (ближайшие 24 часа)

TLE

СвежийSource: Space-Track

Эпоха: Sep 13, 2026, 01:29 UTC

1 04683U 70025BG  26256.06245500  .00000207  00000-0  48304-3 0  9999
2 04683 100.4089 299.1393 0121335 244.0702 144.6305 13.35051523739218

Отслеживайте THORAD AGENA D DEB в реальном времени с AllMySat

Download on the App Store